UAL1183 KEWR-KBOS

Flight info

Callsign UAL1183
Flight time N/A
Altitude 21000
Route MERIT ROBUC3
Aircraft A20N/M-SDE2E3FGHIRWXY/LB1

Departure

Time N/A
Airport Newark Liberty International Airport (KEWR)

Arrival

Time 2026-05-06 16:16
Airport Boston Logan International Airport (KBOS)
Time Latitude Longitude Altitude Speed Heading
2026-05-06 15:49 41.60569 -71.83434 18056 ft 429 kts 70°
2026-05-06 15:49 41.60977 -71.82057 17890 ft 426 kts 71°
2026-05-06 15:50 41.62060 -71.78398 17440 ft 419 kts 71°
2026-05-06 15:50 41.63116 -71.74814 16996 ft 412 kts 71°
2026-05-06 15:50 41.64145 -71.71318 16573 ft 406 kts 71°
2026-05-06 15:50 41.65172 -71.67827 16139 ft 400 kts 71°
2026-05-06 15:51 41.66174 -71.64420 15708 ft 387 kts 72°
2026-05-06 15:51 41.67146 -71.61116 15290 ft 375 kts 72°
2026-05-06 15:51 41.68043 -71.58055 14910 ft 374 kts 72°
2026-05-06 15:51 41.68992 -71.54804 14504 ft 373 kts 72°
2026-05-06 15:52 41.69934 -71.51577 14099 ft 371 kts 72°
2026-05-06 15:52 41.70858 -71.48415 13681 ft 369 kts 72°
2026-05-06 15:52 41.71758 -71.45331 13224 ft 366 kts 73°
2026-05-06 15:52 41.72785 -71.42210 12750 ft 365 kts 64°
2026-05-06 15:53 41.74048 -71.39287 12291 ft 357 kts 63°
2026-05-06 15:53 41.75081 -71.36894 11909 ft 350 kts 63°
2026-05-06 15:53 41.76273 -71.34115 11470 ft 350 kts 64°
2026-05-06 15:53 41.77479 -71.31289 11177 ft 347 kts 64°
2026-05-06 15:54 41.78679 -71.28469 11091 ft 350 kts 64°
2026-05-06 15:54 41.79884 -71.25639 11068 ft 349 kts 64°
2026-05-06 15:54 41.81086 -71.22814 11066 ft 349 kts 64°
2026-05-06 15:54 41.82289 -71.19986 11065 ft 349 kts 64°
2026-05-06 15:55 41.83492 -71.17156 11073 ft 349 kts 64°
2026-05-06 15:55 41.84680 -71.14358 11070 ft 350 kts 64°
2026-05-06 15:55 41.85884 -71.11520 11057 ft 350 kts 64°
2026-05-06 15:55 41.87103 -71.08685 10952 ft 349 kts 64°
2026-05-06 15:56 41.88327 -71.05862 10854 ft 348 kts 64°
2026-05-06 15:56 41.89531 -71.03086 10759 ft 348 kts 64°
2026-05-06 15:56 41.90745 -71.00279 10649 ft 348 kts 64°
2026-05-06 15:56 41.91959 -70.97467 10546 ft 347 kts 64°
2026-05-06 15:57 41.93169 -70.94657 10447 ft 346 kts 64°
2026-05-06 15:57 41.94376 -70.91851 10251 ft 347 kts 64°
2026-05-06 15:57 41.95579 -70.89052 9963 ft 344 kts 65°
2026-05-06 15:57 41.96775 -70.86272 9666 ft 344 kts 65°
2026-05-06 15:58 41.97963 -70.83501 9351 ft 341 kts 65°
2026-05-06 15:58 41.99136 -70.80760 9043 ft 336 kts 65°
2026-05-06 15:58 42.00294 -70.78051 8742 ft 338 kts 65°
2026-05-06 15:58 42.01608 -70.75435 8415 ft 337 kts 52°
2026-05-06 15:59 42.03180 -70.73095 8177 ft 337 kts 50°
2026-05-06 15:59 42.04748 -70.70764 8080 ft 337 kts 50°
2026-05-06 15:59 42.06314 -70.68422 8041 ft 336 kts 50°
2026-05-06 15:59 42.07876 -70.66080 8042 ft 336 kts 50°
2026-05-06 16:00 42.09440 -70.63735 8045 ft 336 kts 49°
2026-05-06 16:00 42.11257 -70.61785 8044 ft 336 kts 25°
2026-05-06 16:00 42.13461 -70.60824 8046 ft 333 kts
2026-05-06 16:00 42.15729 -70.60195 8042 ft 331 kts
2026-05-06 16:01 42.17989 -70.59592 8044 ft 331 kts
2026-05-06 16:01 42.20244 -70.58986 8046 ft 332 kts
2026-05-06 16:01 42.22509 -70.58368 8024 ft 333 kts
2026-05-06 16:01 42.24779 -70.57741 7727 ft 333 kts
2026-05-06 16:02 42.27049 -70.57107 7313 ft 333 kts
2026-05-06 16:02 42.29283 -70.56481 6907 ft 331 kts
2026-05-06 16:02 42.31537 -70.56038 6483 ft 319 kts 352°
2026-05-06 16:02 42.33559 -70.56619 6069 ft 293 kts 326°
2026-05-06 16:03 42.35187 -70.58167 5658 ft 281 kts 306°
2026-05-06 16:03 42.36469 -70.59999 5245 ft 272 kts 301°
2026-05-06 16:03 42.37753 -70.61977 4810 ft 270 kts 301°
2026-05-06 16:03 42.39012 -70.63832 4364 ft 264 kts 303°
2026-05-06 16:04 42.40263 -70.65573 3950 ft 258 kts 304°
2026-05-06 16:04 42.41523 -70.67267 3526 ft 253 kts 304°
2026-05-06 16:04 42.42765 -70.68907 3206 ft 244 kts 304°
2026-05-06 16:04 42.43944 -70.70441 3111 ft 227 kts 303°
2026-05-06 16:05 42.45043 -70.71869 3038 ft 216 kts 303°
2026-05-06 16:05 42.46133 -70.73323 3002 ft 220 kts 302°
2026-05-06 16:05 42.47216 -70.74766 3000 ft 218 kts 302°
2026-05-06 16:05 42.48300 -70.76205 2999 ft 218 kts 303°
2026-05-06 16:06 42.49382 -70.77640 2996 ft 217 kts 303°
2026-05-06 16:06 42.50458 -70.79063 2997 ft 217 kts 303°
2026-05-06 16:06 42.51540 -70.80492 2994 ft 218 kts 304°
2026-05-06 16:06 42.52914 -70.81557 2999 ft 243 kts 335°
2026-05-06 16:07 42.54667 -70.81574 3003 ft 262 kts
2026-05-06 16:07 42.56423 -70.80778 2994 ft 270 kts 17°
2026-05-06 16:07 42.58160 -70.80264 3006 ft 250 kts 348°
2026-05-06 16:07 42.59742 -70.80867 2999 ft 228 kts 315°
2026-05-06 16:08 42.60734 -70.82343 3003 ft 201 kts 282°
2026-05-06 16:08 42.60868 -70.84078 2996 ft 178 kts 248°
2026-05-06 16:08 42.60310 -70.85555 3001 ft 176 kts 236°
2026-05-06 16:08 42.59648 -70.86953 2998 ft 177 kts 231°
2026-05-06 16:09 42.58970 -70.88364 3000 ft 179 kts 235°
2026-05-06 16:09 42.58146 -70.89591 2992 ft 176 kts 218°
2026-05-06 16:09 42.57078 -70.90425 3000 ft 179 kts 208°
2026-05-06 16:09 42.55924 -70.91055 3005 ft 179 kts 205°
2026-05-06 16:10 42.54773 -70.91615 2991 ft 173 kts 205°
2026-05-06 16:10 42.53686 -70.92143 3013 ft 158 kts 205°
2026-05-06 16:10 42.52720 -70.92616 2996 ft 141 kts 206°
2026-05-06 16:10 42.51763 -70.93088 2953 ft 147 kts 206°
2026-05-06 16:11 42.50837 -70.93537 2776 ft 135 kts 205°
2026-05-06 16:11 42.49929 -70.93985 2612 ft 141 kts 205°
2026-05-06 16:11 42.49016 -70.94426 2436 ft 137 kts 205°
2026-05-06 16:11 42.48126 -70.94860 2246 ft 133 kts 204°
2026-05-06 16:12 42.47272 -70.95274 2074 ft 127 kts 204°
2026-05-06 16:12 42.46472 -70.95661 1912 ft 118 kts 203°
2026-05-06 16:12 42.45721 -70.96028 1772 ft 115 kts 203°
2026-05-06 16:12 42.44963 -70.96400 1627 ft 115 kts 201°
2026-05-06 16:13 42.44208 -70.96769 1477 ft 113 kts 201°
2026-05-06 16:13 42.43467 -70.97126 1327 ft 114 kts 201°
2026-05-06 16:13 42.42713 -70.97491 1154 ft 112 kts 201°
2026-05-06 16:13 42.42025 -70.97825 1009 ft 101 kts 200°
2026-05-06 16:14 42.41338 -70.98160 876 ft 110 kts 201°
2026-05-06 16:14 42.40593 -70.98522 730 ft 117 kts 200°
2026-05-06 16:14 42.39857 -70.98879 576 ft 113 kts 200°
2026-05-06 16:14 42.39112 -70.99240 418 ft 109 kts 199°
2026-05-06 16:15 42.38412 -70.99580 279 ft 105 kts 198°
2026-05-06 16:15 42.37725 -70.99916 141 ft 106 kts 199°
2026-05-06 16:15 42.37030 -71.00255 35 ft 105 kts 199°
2026-05-06 16:15 42.36426 -71.00545 27 ft 76 kts 200°
2026-05-06 16:16 42.36104 -71.00700 26 ft 39 kts 201°
2026-05-06 16:16 42.35957 -71.00851 27 ft 17 kts 226°
2026-05-06 16:16 42.35926 -71.00899 26 ft 1 kts 231°
2026-05-06 16:16 42.35912 -71.00922 26 ft 5 kts 231°
2026-05-06 16:17 42.35875 -71.00988 28 ft 13 kts 232°
2026-05-06 16:17 42.35838 -71.01099 28 ft 12 kts 277°
2026-05-06 16:17 42.35846 -71.01235 25 ft 10 kts 275°
2026-05-06 16:17 42.35855 -71.01330 26 ft 15 kts 279°
2026-05-06 16:18 42.35876 -71.01509 26 ft 17 kts 282°
2026-05-06 16:18 42.35975 -71.01509 26 ft 20 kts 22°
2026-05-06 16:18 42.36108 -71.01436 25 ft 9 kts 21°
2026-05-06 16:18 42.36128 -71.01426 25 ft 6 kts 20°
2026-05-06 16:19 42.36180 -71.01444 29 ft 7 kts 303°
2026-05-06 16:19 42.36215 -71.01523 26 ft 10 kts 294°
2026-05-06 16:19 42.36241 -71.01586 27 ft 10 kts 316°
2026-05-06 16:19 42.36257 -71.01599 26 ft 3 kts 332°
2026-05-06 16:20 42.36288 -71.01617 29 ft 0 kts 338°
2026-05-06 16:20 42.36294 -71.01620 27 ft 0 kts 338°